COSMOS 2251 DEB, 33826

Orbit data source: Space-Track

COSMOS 2251 DEB, 33826 is space debris in LEO originally from a launch on Wed, 16 Jun 1993 UTC launched from the Plesetsk Missile And Space Complex (PKMTR). The debris from Iridium 33, an American commercial communications satellite, has been tracked extensively since its accidental collision with the defunct Russian satellite Cosmos 2251 in 2009. This event, occurring at high speed in low Earth orbit (LEO), generated thousands of pieces of space debris, significantly increasing the risk of further collisions. The Iridium 33 debris cloud has impacted space traffic management and orbital debris mitigation strategies, making it a subject of ongoing study in space situational awareness.

Loading next visibility...
Identifier
33826, 1993-036BT
Orbit
LEO
Country
Flag of CISCIS
Related business
Manufacturer
Unknown
Mission
Spacecraft
Bus & Motor
Unknown
Mass
Unknown
Launch date (UTC)
1993-06-16 (32 years ago)
Launch vehicle
Unknown
Launch site
Plesetsk Missile And Space Complex (PKMTR)
Object type
Payload
Rocket body
Debris
Shape & HBR
Unknown shape, 0.1 m
Radar Cross Section
Small (<0.1 m²)

Expand to show TLE details & history
Last TLE update: 22 hours ago

TLE from 22 hours ago
0 COSMOS 2251 DEB
1 33826U 93036BT  25309.49440694  .00012211  00000-0  29551-2 0  9993
2 33826  74.0625 119.8557 0087934 174.5865 216.7388 14.50734732872290
Epoch: 2025-11-05T11:51Z
TLE epoch observation values (Epoch: 2025-11-05T11:51:56.759Z)
Latitude
29.48276°
Longitude
-93.85573°
Altitude
776.867 km
Speed
7.442 km/s
True Right ascension
08h 36m 23s
True Declination
29° 20' 10"
Sunlit
Object was in daylight at epoch
Visualization orbit readout
Latitude
Unknown
Longitude
Unknown
Altitude
Unknown
Speed
Unknown
Apparent Right ascension
Unknown
Apparent Declination
Unknown
Sunlit
N/A
Visualization observer readout
Local Sidereal Time
05:43:18
Azimuth
Unknown
Elevation
Unknown
Doppler factor
Unknown
Orbital elements
Apogee altitude
783.279 km
Perigee altitude
658.431 km
Semi-major axis
7,098.992 km
Eccentricity
0.00879
Inclination
74.0625°
RAAN
119.8557°
Arg. of periapsis
174.5865°
True anomaly
216.14133°
Mean anomaly
216.7388°
Eccentric anomaly
216.43954°
Mean motion
3.62868 °/min
Orbital period
99.21 mins
BSTAR
0.0029551
Loading maneuver chart data...
Computing Atmospheric mass density...

Documentation

Showing up to 5 results
|